Prescott, AZ

4:06 AM MST on December 13, 2019 (GMT -0700)
Love

Weather History for KPRC - October, 2019

Change the Weather History Date:

Wednesday, October 2, 2019

  Actual Average Record
Temperature  
Mean Temperature 58 °F 62 °F  
Max Temperature 75 °F 77 °F 91 °F (1980)
Min Temperature 41 °F 47 °F 33 °F (1950)
Degree Days  
Heating Degree Days 7    
Month to date heating degree days 14  
Since 1 July heating degree days 41  
Cooling Degree Days 0    
Month to date cooling degree days 0  
Year to date cooling degree days 1130  
Growing Degree Days 8 (Base 50)    
Moisture  
Dew Point 32 °F    
Average Humidity 42    
Maximum Humidity 70    
Minimum Humidity 20    
Precipitation  
Precipitation 0.00 in 0.03 in 0.90 in (1981)
Month to date precipitation 0.00 0.07  
Year to date precipitation 10.29 11.24  
Sea Level Pressure  
Sea Level Pressure 29.95 in    
Wind  
Wind Speed 4 mph ()    
Max Wind Speed 13 mph    
Max Gust Speed 17 mph    
Visibility 10.0 miles    
Events      
T = Trace of Precipitation, MM = Missing Value Source: Averaged Metar Reports

Daily Weather History Graph

Daily Weather History Graph

Search for Another Location

Airport or City:

Astronomy

Oct. 02, 2019 Rise Set
Actual Time 6:24 AM MST 6:12 PM MST
Civil Twilight 5:59 AM MST 6:37 PM MST
Nautical Twilight 5:30 AM MST 7:06 PM MST
Astronomical Twilight 5:01 AM MST 7:36 PM MST
Moon 10:44 AM MST (10/2) 9:20 PM MST (10/2)
Length of Visible Light 12h 37m
Length of Day
11h 47m
Waxing Crescent, 21% of the Moon is Illuminated
Oct 2
Waxing Crescent
Oct 5
First Quarter
Oct 13
Full
Oct 21
Last Quarter
Oct 27
New

Hourly Weather History & Observations

Time (MST) Temp. Windchill Dew Point Humidity Pressure Visibility Wind Dir Wind Speed Gust Speed Precip Events Conditions
12:53 AM 48.0 °F - 27.0 °F 44% 29.89 in 10.0 mi Calm Calm - N/A   Clear
1:53 AM 45.0 °F - 28.0 °F 52% 29.91 in 10.0 mi Calm Calm - N/A   Clear
2:53 AM 44.1 °F - 28.9 °F 55% 29.91 in 10.0 mi Calm Calm - N/A   Clear
3:53 AM 45.0 °F 42.6 °F 28.9 °F 53% 29.92 in 10.0 mi South 4.6 mph - N/A   Clear
4:53 AM 43.0 °F 38.8 °F 30.0 °F 60% 29.94 in 10.0 mi SSW 6.9 mph - N/A   Clear
5:53 AM 43.0 °F 38.8 °F 32.0 °F 65% 29.96 in 10.0 mi SSW 6.9 mph - N/A   Clear
6:53 AM 43.0 °F - 33.1 °F 68% 29.99 in 10.0 mi Calm Calm - N/A   Clear
7:53 AM 51.1 °F - 36.0 °F 56% 30.01 in 10.0 mi Calm Calm - N/A   Clear
8:53 AM 57.9 °F - 36.0 °F 44% 30.01 in 10.0 mi NNE 3.5 mph - N/A   Clear
9:53 AM 64.0 °F - 37.0 °F 37% 30.01 in 10.0 mi Variable 3.5 mph - N/A   Clear
10:53 AM 66.9 °F - 32.0 °F 27% 30.00 in 10.0 mi SE 9.2 mph - N/A   Clear
11:53 AM 70.0 °F - 33.1 °F 26% 29.97 in 10.0 mi Variable 6.9 mph - N/A   Clear
12:53 PM 71.1 °F - 30.9 °F 23% 29.94 in 10.0 mi Variable 5.8 mph - N/A   Clear
1:53 PM 72.0 °F - 30.0 °F 21% 29.93 in 10.0 mi East 6.9 mph - N/A   Clear
2:53 PM 73.9 °F - 30.0 °F 20% 29.92 in 10.0 mi ESE 8.1 mph - N/A   Clear
3:53 PM 73.9 °F - 30.0 °F 20% 29.91 in 10.0 mi ESE 9.2 mph - N/A   Clear
4:53 PM 72.0 °F - 30.0 °F 21% 29.92 in 10.0 mi SE 10.4 mph - N/A   Clear
5:53 PM 70.0 °F - 30.0 °F 23% 29.93 in 10.0 mi SE 9.2 mph - N/A   Clear
6:53 PM 66.0 °F - 32.0 °F 28% 29.95 in 10.0 mi South 3.5 mph - N/A   Clear
7:53 PM 57.9 °F - 36.0 °F 44% 29.96 in 10.0 mi SSW 4.6 mph - N/A   Clear
8:53 PM 55.9 °F - 37.0 °F 49% 29.96 in 10.0 mi SSW 9.2 mph - N/A   Clear
9:53 PM 54.0 °F - 35.1 °F 49% 29.96 in 10.0 mi South 6.9 mph - N/A   Clear
10:53 PM 48.9 °F - 36.0 °F 61% 29.97 in 10.0 mi South 5.8 mph - N/A   Clear
11:53 PM 48.0 °F - 36.0 °F 63% 29.95 in 10.0 mi Calm Calm - N/A   Clear